TimeMST,TemperatureF,Dew PointF,Humidity,Sea Level PressureIn,VisibilityMPH,Wind Direction,Wind SpeedMPH,Gust SpeedMPH,PrecipitationIn,Events,Conditions,WindDirDegrees,DateUTC
12:22 AM,21.2,17.6,86,29.80,2.5,North,9.2,-,0.00,Snow,Light Snow,10,2012-11-10 07:22:00
12:29 AM,19.4,17.6,93,29.80,1.5,North,8.1,-,0.01,Snow,Light Snow,10,2012-11-10 07:29:00
12:37 AM,19.4,17.6,93,29.81,1.0,NNE,4.6,-,0.01,Snow,Light Snow,20,2012-11-10 07:37:00
12:53 AM,19.9,18.0,92,29.92,1.0,NE,5.8,-,0.02,Snow,Light Snow,50,2012-11-10 07:53:00
1:53 AM,19.9,18.0,92,29.92,1.2,NE,5.8,-,0.03,Snow,Light Snow,50,2012-11-10 08:53:00
2:13 AM,19.4,17.6,93,29.81,1.5,NE,5.8,-,0.00,Snow,Light Snow,40,2012-11-10 09:13:00
2:22 AM,19.4,17.6,93,29.82,2.0,NE,5.8,-,0.01,Snow,Light Snow,40,2012-11-10 09:22:00
2:53 AM,19.0,17.1,92,29.91,1.8,NNE,4.6,-,0.01,Snow,Light Snow,30,2012-11-10 09:53:00
3:08 AM,19.4,17.6,93,29.81,1.8,North,3.5,-,0.01,Snow,Light Snow,350,2012-11-10 10:08:00
3:24 AM,19.4,15.8,86,29.81,2.0,NNW,6.9,-,0.01,Snow,Light Snow,340,2012-11-10 10:24:00
3:53 AM,19.0,16.0,88,29.95,3.0,NNW,6.9,-,0.01,Snow,Light Snow,340,2012-11-10 10:53:00
4:33 AM,19.4,15.8,86,29.82,2.0,North,9.2,-,0.00,Snow,Light Snow,350,2012-11-10 11:33:00
4:41 AM,19.4,15.8,86,29.83,1.0,North,6.9,-,0.01,Snow,Light Snow,10,2012-11-10 11:41:00
4:53 AM,18.0,16.0,92,29.95,1.0,North,6.9,-,0.01,Snow,Light Snow,10,2012-11-10 11:53:00
5:33 AM,17.6,15.8,93,29.84,1.5,North,8.1,-,0.02,Snow,Light Snow,350,2012-11-10 12:33:00
5:53 AM,18.0,15.1,88,29.97,1.5,North,6.9,-,0.03,Snow,Light Snow,350,2012-11-10 12:53:00
6:31 AM,17.6,14.0,86,29.85,1.0,North,10.4,-,0.00,Snow,Light Snow,10,2012-11-10 13:31:00
6:53 AM,17.1,14.0,88,29.99,1.2,North,8.1,-,0.01,Snow,Light Snow,10,2012-11-10 13:53:00
6:59 AM,17.6,14.0,86,29.85,1.5,North,8.1,-,0.00,Snow,Light Snow,10,2012-11-10 13:59:00
7:20 AM,17.6,15.8,93,29.86,1.0,NNE,5.8,-,0.01,Snow,Light Snow,20,2012-11-10 14:20:00
7:45 AM,17.6,14.0,86,29.87,1.8,North,8.1,-,0.02,Snow,Light Snow,10,2012-11-10 14:45:00
7:53 AM,17.1,14.0,88,30.01,1.8,North,8.1,-,0.02,Snow,Light Snow,10,2012-11-10 14:53:00
8:04 AM,17.6,14.0,86,29.88,1.8,NNE,9.2,-,0.00,Snow,Light Snow,20,2012-11-10 15:04:00
8:19 AM,17.6,14.0,86,29.88,1.2,North,9.2,-,0.01,Snow,Light Snow,10,2012-11-10 15:19:00
8:46 AM,15.8,12.2,86,29.88,0.8,NNE,11.5,-,0.01,Snow,Light Snow,20,2012-11-10 15:46:00
8:53 AM,16.0,12.9,88,30.03,0.5,North,9.2,-,0.01,Snow,Light Snow,10,2012-11-10 15:53:00
9:21 AM,15.8,12.2,86,29.88,0.5,NNE,11.5,-,0.01,Fog-Snow,Snow,20,2012-11-10 16:21:00
9:53 AM,16.0,12.9,88,30.04,0.5,NNE,10.4,-,0.02,Fog-Snow,Snow,20,2012-11-10 16:53:00
10:17 AM,15.8,12.2,86,29.90,1.5,North,11.5,-,0.00,Snow,Light Snow,10,2012-11-10 17:17:00
10:27 AM,15.8,12.2,86,29.90,2.0,NNE,10.4,-,0.00,Snow,Light Snow,20,2012-11-10 17:27:00
10:53 AM,16.0,12.0,84,30.06,2.0,NNE,10.4,-,0.00,Snow,Light Snow,30,2012-11-10 17:53:00
11:53 AM,16.0,10.9,81,30.05,2.0,NNE,11.5,-,0.00,Snow,Light Snow,20,2012-11-10 18:53:00
12:22 PM,17.6,12.2,79,29.90,3.0,North,10.4,-,0.01,Snow,Light Snow,10,2012-11-10 19:22:00
12:53 PM,17.1,12.0,81,30.05,3.0,NNE,9.2,-,0.01,Snow,Light Snow,30,2012-11-10 19:53:00
1:11 PM,17.6,12.2,79,29.90,2.0,NE,8.1,-,0.00,Snow,Light Snow,40,2012-11-10 20:11:00
1:18 PM,17.6,12.2,79,29.90,3.0,NNE,6.9,-,0.00,Snow,Light Snow,20,2012-11-10 20:18:00
1:41 PM,17.6,12.2,79,29.90,2.5,NNE,6.9,-,0.00,Snow,Light Snow,20,2012-11-10 20:41:00
1:53 PM,17.1,12.0,81,30.05,2.5,North,6.9,-,0.00,Snow,Light Snow,360,2012-11-10 20:53:00
2:16 PM,17.6,12.2,79,29.91,1.0,NNE,6.9,-,0.00,Snow,Light Snow,30,2012-11-10 21:16:00
2:32 PM,17.6,12.2,79,29.91,1.8,North,4.6,-,0.00,Snow,Light Snow,360,2012-11-10 21:32:00
2:42 PM,17.6,10.4,73,29.92,2.5,NNW,5.8,-,0.00,Snow,Light Snow,330,2012-11-10 21:42:00
2:53 PM,16.0,10.9,81,30.07,7.0,NW,8.1,-,0.00,Fog-Snow,Light Snow,310,2012-11-10 21:53:00
3:53 PM,12.9,7.0,77,30.10,10.0,WNW,8.1,-,0.00,,Scattered Clouds,300,2012-11-10 22:53:00
4:53 PM,10.0,5.0,80,30.13,10.0,West,8.1,-,N/A,,Scattered Clouds,260,2012-11-10 23:53:00
5:53 PM,12.0,3.9,70,30.14,10.0,WSW,6.9,-,N/A,,Mostly Cloudy,250,2012-11-11 00:53:00
6:53 PM,10.9,5.0,77,30.15,10.0,WSW,4.6,-,N/A,,Mostly Cloudy,250,2012-11-11 01:53:00
7:53 PM,10.0,3.9,76,30.15,10.0,SW,8.1,-,N/A,,Mostly Cloudy,220,2012-11-11 02:53:00
8:53 PM,8.6,1.4,73,29.97,10.0,Calm,Calm,-,N/A,,Scattered Clouds,0,2012-11-11 03:53:00
9:53 PM,10.0,3.0,73,30.15,10.0,SSW,10.4,-,N/A,,Overcast,200,2012-11-11 04:53:00
10:53 PM,9.0,3.0,77,30.14,10.0,WSW,10.4,-,N/A,,Overcast,240,2012-11-11 05:53:00
11:53 PM,10.0,3.0,73,30.14,10.0,WSW,15.0,-,N/A,,Overcast,240,2012-11-11 06:53:00